[[[{"header":{"parameterUnit":"kt","parameterCategory":2,"dx":1,"dy":1,"la1":30.253999710083008,"la2":30.299108505249023,"lo1":-89.0895004272461,"lo2":-89.04439544677734,"nx":28,"ny":28,"refTime":"2022-10-14T21:00:00:Z","depth":0,"parameterNumber":1,"parameterNumberName":"U-component_of_WINDS"},"data":[-7.0239,-7.0388,-7.0368,-7.0531,-7.054,-7.0649,-7.0681,-7.0721,-7.0748,-7.0876,-7.0947,-7.0943,-7.0963,-7.1043,-7.112,-7.1116,-7.1152,-7.1221,-7.1206,-7.0913,-7.0871,-7.0831,-7.0794,-7.1228,-7.1229,-7.1514,-7.1517,-7.1519,-7.0032,-7.0043,-7.0121,-7.0184,-7.0252,-7.0174,-7.0218,-7.0281,-7.038,-7.0413,-7.048,-7.0592,-7.0677,-7.0673,-7.0752,-7.0825,-7.0793,-7.0848,-7.0844,-7.0849,-7.0534,-7.0495,-7.0873,-7.0872,-7.0872,-7.0872,-7.0872,-7.0872,-6.965,-6.974,-6.9765,-6.985,-6.9875,-6.9918,-7.0001,-6.9991,-7.0069,-7.0146,-7.0106,-7.0218,-7.0248,-7.0331,-7.0354,-7.0443,-7.0378,-7.0432,-7.0447,-7.0462,-7.0484,-7.0083,-7.0454,-7.0453,-7.0452,-7.0451,-7.045,0,-6.9365,-6.9342,-6.9414,-6.9482,-6.9542,-6.9592,-6.9634,-6.9685,-6.9626,-6.9692,-6.9787,-6.9838,-6.994,-7.0028,-7.0096,-7.0108,-7.0035,-7.0023,-7.0061,-7.0086,-7.01,-7.0099,-6.959,-7.0013,-7.0009,-7.0007,-7.0005,-7.0003,-6.8983,-6.9088,-6.9101,-6.9156,-6.9172,-6.926,-6.9308,-6.9247,-6.9302,-6.9345,-6.9428,-6.9513,-6.9579,-6.9735,-6.9723,-6.9799,-6.9765,-6.993,-6.9776,-6.9795,-6.9773,-6.9769,-6.9781,-6.9962,-6.9967,-6.9972,-6.9975,0,-6.877,-6.8732,-6.8887,-6.8889,-6.8893,-6.9007,-6.901,-6.9096,-6.9076,-6.9193,-6.9217,-6.9186,-6.928,-6.924,-6.9339,-6.9316,-6.9511,-6.9472,-6.9501,-6.9493,-6.964,-6.9628,-7.0114,-7.0177,-6.9722,-6.9726,-6.973,0,-6.843,-6.857,-6.8505,-6.8597,-6.8752,-6.8685,-6.884,-6.8837,-6.8858,-6.8949,-6.8856,-6.8945,-6.8878,-6.8962,-6.8928,-6.9078,-6.9095,-6.9088,-6.9078,-6.9099,-6.9101,-6.913,-6.911,-6.9045,-6.9042,-6.904,-6.9038,0,-6.8104,-6.823,-6.8379,-6.8402,-6.8416,-6.8488,-6.8498,-6.8519,-6.8567,-6.8621,-6.8652,-6.872,-6.8759,-6.8815,-6.877,-6.8668,-6.8952,-6.8802,-6.8945,-6.8947,-6.9012,-6.9009,-6.9447,-6.9035,-6.9035,-6.9034,-6.9033,0,-6.7824,-6.7877,-6.8097,-6.8107,-6.8143,-6.824,-6.8302,-6.8375,-6.8405,-6.8388,-6.843,-6.8364,-6.8487,-6.8343,-6.8515,-6.8395,-6.8439,-6.8442,-6.8451,-6.8463,-6.8302,-6.8559,-6.8976,-6.9021,-6.8471,-6.8466,-6.8462,0,-6.7464,-6.7673,-6.7615,-6.7825,-6.7916,-6.7804,-6.7912,-6.7939,-6.7925,-6.8001,-6.7985,-6.8073,-6.7956,-6.7978,-6.8067,-6.8056,-6.8213,-6.8033,-6.8152,-6.8157,-6.8151,-6.8533,-6.8607,-6.8889,-6.8401,-6.8408,-6.8412,0,-6.7179,-6.7191,-6.7233,-6.7256,-6.7278,-6.7352,-6.7475,-6.7545,-6.7599,-6.7638,-6.7741,-6.786,-6.7778,-6.7814,-6.7766,-6.7862,-6.8105,-6.7761,-6.776,-6.7828,-6.8365,-6.8436,-6.8483,-6.8052,-6.8059,-6.8065,-6.8364,0,-6.6772,-6.6869,-6.6976,-6.7028,-6.7077,-6.7204,-6.7156,-6.7215,-6.7163,-6.7144,-6.7293,-6.7302,-6.7375,-6.7415,-6.7364,-6.7595,-6.7551,-6.7461,-6.7319,-6.7568,-6.7666,-6.7706,-6.7177,-6.7173,-6.7169,-6.7166,0,0,-6.644,-6.6576,-6.6506,-6.662,-6.6658,-6.6539,-6.6679,-6.6702,-6.6751,-6.6782,-6.6701,-6.6872,-6.6883,-6.7069,-6.7143,-6.717,-6.7209,-6.7122,-6.7449,-6.7481,-6.751,-6.7615,-6.7657,-6.7159,-6.7158,-6.7156,-6.7155,0,-6.6281,-6.629,-6.6427,-6.6447,-6.6473,-6.6445,-6.6478,-6.6484,-6.6478,-6.662,-6.6521,-6.6604,-6.674,-6.6766,-6.6798,-6.7098,-6.702,-6.7123,-6.7302,-6.7412,-6.7449,-6.7481,-6.7593,-6.7633,-6.7146,-6.7147,-6.7147,0,-6.5994,-6.5997,-6.6056,-6.6133,-6.6149,-6.6243,-6.6081,-6.6187,-6.6257,-6.6121,-6.6264,-6.6263,-6.6292,-6.6472,-6.655,-6.6479,-6.6852,-6.6723,-6.6746,-6.6754,-6.6859,-6.6903,-6.6943,-6.6425,-6.6422,-6.642,0,0,-6.5864,-6.5951,-6.5933,-6.6095,-6.6112,-6.607,-6.6114,-6.6066,-6.6093,-6.6105,-6.6101,-6.6132,-6.6211,-6.6264,-6.6335,-6.6537,-6.6541,-6.6636,-6.667,-6.6698,-6.6722,-6.6834,-6.6878,-6.6411,-6.6411,-6.6411,0,0,-6.5802,-6.5787,-6.5728,-6.5908,-6.5937,-6.593,-6.6032,-6.596,-6.6018,-6.5998,-6.5922,-6.5927,-6.6093,-6.6096,-6.5984,-6.6284,-6.6143,-6.6169,-6.6276,-6.6318,-6.6352,-6.6349,-6.5821,0,0,0,0,0,-6.5613,-6.5788,-6.5735,-6.5757,-6.5852,-6.596,-6.5972,-6.5912,-6.5814,-6.5896,-6.5882,-6.5793,-6.6021,-6.592,-6.5945,-6.6071,-6.6299,-6.6319,-6.6338,-6.6523,-6.6568,-6.6606,0,0,0,0,0,0,-6.5621,-6.5649,-6.573,-6.5732,-6.5752,-6.5953,-6.5775,-6.5763,-6.5804,-6.5785,-6.5799,-6.5794,-6.5746,-6.5903,-6.5927,-6.6047,-6.5813,-6.6307,-6.6323,-6.6339,-6.6539,-6.6575,-6.6607,0,0,0,0,0,-6.5628,-6.565,-6.5817,-6.5729,-6.5747,-6.5709,-6.5767,-6.5756,-6.5787,-6.5764,-6.5755,-6.5738,-6.5751,-6.5766,-6.5917,-6.6038,-6.5796,-6.5805,-6.6318,-6.6331,-6.6343,-6.6557,0,0,0,0,0,0,-6.5632,-6.5641,-6.5819,-6.5823,-6.5657,-6.5697,-6.5701,-6.5751,-6.5762,-6.5756,-6.5698,-6.5683,-6.5756,-6.5767,-6.578,-6.6039,-6.5783,-6.5792,-6.5797,-6.6328,-6.6338,-6.6348,0,0,0,0,0,0,-6.5629,-6.5645,-6.5821,-6.5734,-6.5727,-6.5686,-6.5689,-6.5808,-6.5764,-6.5695,-6.5683,-6.5692,-6.5738,-6.5769,-6.5778,-6.5966,-6.5772,-6.5781,-6.5787,-6.5791,-6.6336,-6.6345,0,0,0,0,0,0,-6.5635,-6.5648,-6.5733,-6.5727,-6.572,-6.5754,-6.5789,-6.5891,-6.5687,-6.5697,-6.5667,-6.5658,-6.5743,-6.5751,-6.5778,-6.5962,-6.5965,-6.5773,-6.5779,-6.5783,-6.5785,0,0,0,0,0,0,0,-6.5639,-6.556,-6.58,-6.5722,-6.5715,-6.5854,-6.5855,-6.5856,-6.5685,-6.5677,-6.5669,-6.5662,-6.5723,-6.5732,-6.5742,-6.596,0,0,-6.5772,-6.5776,0,0,0,0,0,0,0,0,-6.5553,-6.5558,-6.58,-6.58,-6.5801,-6.5854,-6.5855,-6.5855,-6.5684,-6.5678,-6.5671,-6.5665,-6.5726,-6.5733,-6.5741,0,0,0,0,0,0,0,0,0,0,0,0,0,0,0,-6.58,-6.58,0,-6.5854,-6.5855,-6.5855,-6.5683,-6.5678,-6.5672,-6.5668,-6.5728,-6.5734,-6.574,0,0,0,0,0,0,0,0,0,0,0,0,0,0,0,0,0,0,0,0,0,0,0,0,0,0,0,0,0,0,0,0,0,0,0,0,0,0,0,0,0,0,0,0,0,0,0,0,0,0,0,0,0,0,0,0,0,0,0,0,0,0,0,0,0,0,0,0,0]}],[{"header":{"parameterUnit":"kt","parameterCategory":2,"dx":1,"dy":1,"la1":30.253999710083008,"la2":30.299108505249023,"lo1":-89.0895004272461,"lo2":-89.04439544677734,"nx":28,"ny":28,"refTime":"2022-10-14T21:00:00:Z","depth":0,"parameterNumber":2,"parameterNumberName":"V-component_of_WINDS"},"data":[-3.0082,-3.013,-3.0109,-3.0155,-3.0144,-3.0171,-3.0175,-3.0177,-3.0174,-3.0204,-3.0218,-3.0203,-3.0192,-3.0204,-3.0219,-3.0211,-3.022,-3.0251,-3.0237,-3.0115,-3.0096,-3.0079,-3.0066,-3.0253,-3.0253,-3.0368,-3.0369,-3.037,-2.9992,-2.9982,-3.0,-3.0004,-3.0019,-2.9976,-2.9976,-2.9992,-3.0018,-3.0014,-3.0027,-3.0052,-3.007,-3.0048,-3.0062,-3.0084,-3.0065,-3.0089,-3.0088,-3.0087,-2.9954,-2.9941,-3.0104,-3.0104,-3.0104,-3.0104,-3.0104,-3.0104,-2.9823,-2.9853,-2.9843,-2.9863,-2.9859,-2.9862,-2.9887,-2.9867,-2.9885,-2.9896,-2.9869,-2.9898,-2.9891,-2.9898,-2.9895,-2.9918,-2.9887,-2.9908,-2.9913,-2.9919,-2.9929,-2.9766,-2.9919,-2.9918,-2.9918,-2.9917,-2.9917,0,-2.9694,-2.9675,-2.9691,-2.9701,-2.9714,-2.972,-2.9722,-2.9737,-2.969,-2.9707,-2.9729,-2.9739,-2.9758,-2.9778,-2.9786,-2.9779,-2.9738,-2.9731,-2.9745,-2.9759,-2.9771,-2.9766,-2.9552,-2.9727,-2.9725,-2.9724,-2.9723,-2.9722,-2.9523,-2.956,-2.954,-2.9554,-2.955,-2.9574,-2.9584,-2.954,-2.9552,-2.9549,-2.9577,-2.9596,-2.9608,-2.9648,-2.9626,-2.964,-2.9621,-2.969,-2.9623,-2.9634,-2.9622,-2.9621,-2.9625,-2.9704,-2.9707,-2.9708,-2.971,0,-2.9428,-2.9395,-2.9446,-2.9423,-2.9418,-2.946,-2.944,-2.9468,-2.9446,-2.9481,-2.9487,-2.9453,-2.9476,-2.9442,-2.9462,-2.9443,-2.9511,-2.9491,-2.9513,-2.9508,-2.9567,-2.9562,-2.9763,-2.9787,-2.9592,-2.9594,-2.9595,0,-2.927,-2.9321,-2.9268,-2.9299,-2.9354,-2.9308,-2.9363,-2.935,-2.9343,-2.937,-2.9317,-2.9344,-2.9296,-2.9318,-2.9291,-2.934,-2.9344,-2.9333,-2.9326,-2.9339,-2.934,-2.9346,-2.9337,-2.9306,-2.9305,-2.9304,-2.9303,0,-2.9126,-2.9158,-2.9208,-2.921,-2.9191,-2.9216,-2.921,-2.9201,-2.9212,-2.922,-2.9226,-2.9239,-2.9247,-2.9257,-2.9223,-2.9178,-2.9282,-2.9214,-2.9271,-2.9272,-2.9297,-2.9296,-2.9481,-2.9302,-2.9302,-2.9301,-2.9301,0,-2.8994,-2.9002,-2.9081,-2.9064,-2.9074,-2.9108,-2.9117,-2.9138,-2.9133,-2.9118,-2.9124,-2.9085,-2.9125,-2.906,-2.9114,-2.9066,-2.9077,-2.907,-2.9073,-2.9076,-2.9004,-2.9114,-2.9293,-2.9311,-2.9076,-2.9075,-2.9073,0,-2.8839,-2.8909,-2.8871,-2.8947,-2.8975,-2.8912,-2.8949,-2.8947,-2.8929,-2.895,-2.8931,-2.8956,-2.89,-2.8904,-2.8935,-2.8916,-2.8978,-2.8907,-2.8939,-2.8941,-2.8943,-2.9107,-2.9142,-2.9257,-2.9048,-2.9051,-2.9053,0,-2.8715,-2.8691,-2.8708,-2.8708,-2.8697,-2.8721,-2.8763,-2.8777,-2.8793,-2.8797,-2.8831,-2.8865,-2.8824,-2.8831,-2.88,-2.8835,-2.8935,-2.8787,-2.8786,-2.8815,-2.9033,-2.9067,-2.9086,-2.8907,-2.891,-2.8912,-2.9033,0,-2.8522,-2.8553,-2.8596,-2.8599,-2.8612,-2.8658,-2.8621,-2.8639,-2.8608,-2.8589,-2.8639,-2.8629,-2.8645,-2.8657,-2.8628,-2.8718,-2.8698,-2.8655,-2.859,-2.8697,-2.8737,-2.8752,-2.8535,-2.8532,-2.8531,-2.8529,0,0,-2.8382,-2.8427,-2.8384,-2.8423,-2.8431,-2.8366,-2.8419,-2.8419,-2.8422,-2.8429,-2.8392,-2.844,-2.8434,-2.8498,-2.8529,-2.8535,-2.8548,-2.8512,-2.8646,-2.866,-2.8672,-2.8714,-2.8731,-2.8526,-2.8525,-2.8525,-2.8524,0,-2.8305,-2.8299,-2.8352,-2.835,-2.8345,-2.8322,-2.8335,-2.832,-2.831,-2.8359,-2.8306,-2.8331,-2.8371,-2.8372,-2.8377,-2.8503,-2.8462,-2.851,-2.859,-2.863,-2.8645,-2.8659,-2.8704,-2.8721,-2.852,-2.852,-2.852,0,-2.8176,-2.8165,-2.8186,-2.8202,-2.8199,-2.823,-2.8152,-2.8188,-2.8211,-2.8139,-2.8189,-2.8179,-2.8177,-2.8243,-2.8271,-2.8239,-2.8386,-2.8333,-2.8343,-2.8346,-2.8383,-2.8401,-2.8418,-2.8198,-2.8197,-2.8196,0,0,-2.8115,-2.8144,-2.8118,-2.8182,-2.8184,-2.8151,-2.8164,-2.8135,-2.8134,-2.8134,-2.812,-2.8121,-2.8143,-2.8159,-2.8179,-2.8256,-2.8252,-2.8295,-2.831,-2.8323,-2.8332,-2.8372,-2.8391,-2.8192,-2.8192,-2.8192,0,0,-2.8085,-2.8058,-2.8027,-2.8097,-2.8098,-2.8077,-2.8118,-2.808,-2.8093,-2.8084,-2.8037,-2.8035,-2.8096,-2.8089,-2.8044,-2.8155,-2.8092,-2.8102,-2.8158,-2.8177,-2.8192,-2.8193,-2.7964,0,0,0,0,0,-2.7987,-2.8061,-2.8033,-2.8039,-2.8059,-2.8092,-2.8095,-2.8057,-2.8013,-2.8046,-2.8028,-2.7983,-2.8055,-2.8013,-2.8021,-2.8072,-2.8145,-2.8153,-2.8161,-2.8252,-2.8272,-2.8288,0,0,0,0,0,0,-2.7989,-2.7997,-2.8031,-2.8014,-2.8018,-2.8089,-2.8006,-2.7998,-2.8008,-2.7999,-2.7988,-2.7983,-2.7952,-2.8007,-2.8014,-2.8064,-2.7962,-2.8148,-2.8155,-2.8162,-2.8258,-2.8275,-2.8289,0,0,0,0,0,-2.7991,-2.7997,-2.8039,-2.8013,-2.8017,-2.7984,-2.8003,-2.7995,-2.8003,-2.7976,-2.7969,-2.7974,-2.7954,-2.7958,-2.8011,-2.8062,-2.7956,-2.7959,-2.8153,-2.8158,-2.8163,-2.8266,0,0,0,0,0,0,-2.7992,-2.7991,-2.8039,-2.8039,-2.7983,-2.7979,-2.7978,-2.7993,-2.7978,-2.7973,-2.7959,-2.7952,-2.7957,-2.7959,-2.7962,-2.8063,-2.7952,-2.7955,-2.7957,-2.8157,-2.8161,-2.8165,0,0,0,0,0,0,-2.7987,-2.7991,-2.8039,-2.8003,-2.7998,-2.7975,-2.7974,-2.8014,-2.7979,-2.7962,-2.7956,-2.7956,-2.7953,-2.796,-2.7962,-2.8027,-2.7949,-2.7952,-2.7954,-2.7955,-2.8161,-2.8164,0,0,0,0,0,0,-2.7988,-2.7991,-2.8002,-2.7999,-2.7994,-2.7988,-2.801,-2.8033,-2.7948,-2.7964,-2.7939,-2.7935,-2.7955,-2.7956,-2.7963,-2.8027,-2.8027,-2.7949,-2.7951,-2.7952,-2.7953,0,0,0,0,0,0,0,-2.7989,-2.7975,-2.8041,-2.7996,-2.7991,-2.8036,-2.8036,-2.8036,-2.7947,-2.7943,-2.794,-2.7937,-2.7933,-2.7936,-2.7939,-2.8027,0,0,-2.7949,-2.795,0,0,0,0,0,0,0,0,-2.7973,-2.7975,-2.8041,-2.8041,-2.8041,-2.8036,-2.8036,-2.8036,-2.7946,-2.7943,-2.7941,-2.7938,-2.7934,-2.7937,-2.7939,0,0,0,0,0,0,0,0,0,0,0,0,0,0,0,-2.8041,-2.8041,0,-2.8036,-2.8036,-2.8036,-2.7946,-2.7944,-2.7941,-2.7939,-2.7935,-2.7937,-2.7939,0,0,0,0,0,0,0,0,0,0,0,0,0,0,0,0,0,0,0,0,0,0,0,0,0,0,0,0,0,0,0,0,0,0,0,0,0,0,0,0,0,0,0,0,0,0,0,0,0,0,0,0,0,0,0,0,0,0,0,0,0,0,0,0,0,0,0,0,0]}]]]